Theta_e
340 341 342 341 350 349 356 355 353 354 351 352 349 351 350 351 352 358 346 346 345 347 347 347 345 345 346 346 343 341 342 343 340 339 337 336 335 334 333 331 330 330 331 332 332 332 331 331 330
343 342 340 343 353 355 354 349 353 351 352 351 350 351 352 354 349 347 346 346 346 347 346 345 343 344 344 342 338 337 337 335 332 330 331 331 331 330 328 325 324 326 330 331 331 331 331 331 330
343 343 344 345 348 353 353 346 348 347 351 352 351 349 349 351 348 346 346 346 346 345 344 344 344 344 342 343 339 336 333 330 327 328 328 325 323 321 319 318 318 320 327 328 328 329 328 328 328
344 341 343 347 347 345 346 348 346 350 350 350 349 349 347 346 346 346 346 346 345 343 342 343 341 339 344 341 336 333 326 323 322 323 322 319 319 317 317 317 320 322 325 326 327 327 326 325 325
344 345 350 350 348 345 344 344 346 348 350 350 348 349 348 347 346 347 346 345 344 342 341 343 339 345 345 341 334 326 323 320 320 319 318 319 319 317 318 321 321 320 319 323 324 324 323 323 321
350 350 352 350 349 347 345 343 345 346 346 349 349 349 346 347 346 347 346 345 343 342 341 342 344 345 342 335 326 323 319 317 317 318 318 318 317 317 321 322 322 321 321 321 321 321 322 323 322
350 350 352 352 348 345 344 343 345 345 347 349 347 347 346 347 347 346 346 344 343 341 341 345 347 345 339 329 328 321 317 318 319 318 319 318 321 321 322 323 322 322 322 322 322 322 322 323 323
348 346 349 346 346 343 338 344 343 345 348 345 343 345 345 347 346 346 345 344 342 341 341 343 343 341 338 337 328 325 323 323 322 322 320 322 322 323 323 324 324 324 323 324 324 324 323 322 322
341 346 348 345 343 342 338 341 341 343 347 345 343 346 345 346 346 345 345 344 342 341 340 341 341 340 338 335 335 333 331 327 322 323 321 325 330 329 328 326 324 325 326 327 327 328 326 325 324
342 346 346 342 340 341 340 340 341 341 347 347 349 348 347 346 346 345 345 344 343 342 341 341 341 339 337 335 334 334 333 331 332 330 326 329 328 326 325 325 325 325 325 325 325 325 325 325 326
342 343 342 341 339 339 341 340 339 340 341 342 346 350 348 347 346 346 345 344 343 343 343 342 341 338 336 334 333 331 331 331 331 328 325 326 326 326 326 326 327 326 327 328 328 327 327 327 327
343 343 342 341 340 341 341 339 339 339 342 343 340 347 349 348 347 346 346 345 345 345 343 342 340 339 336 334 332 330 328 327 325 330 325 325 326 327 327 328 329 329 329 328 329 328 328 327 327
342 342 340 340 340 338 338 339 339 342 348 346 345 347 349 348 347 346 346 346 346 344 343 342 341 339 337 332 330 326 323 324 324 327 329 326 327 328 329 329 328 329 329 329 329 329 328 327 326
335 337 338 338 338 335 336 339 340 340 347 348 347 348 347 347 347 346 345 345 345 345 344 343 341 341 339 335 329 326 322 322 322 324 325 326 327 328 329 329 329 329 328 327 328 328 327 326 324
332 338 335 335 336 335 336 338 342 340 348 348 348 347 346 346 344 345 345 344 343 342 343 343 342 341 339 337 332 331 328 324 323 327 324 325 326 326 327 329 329 329 328 327 327 327 325 326 325
332 334 337 333 333 334 336 337 343 339 346 348 347 346 346 345 344 343 341 341 341 342 340 339 338 340 337 336 333 336 333 326 324 323 325 328 329 330 329 331 331 329 328 328 326 327 325 324 325
333 335 335 335 332 334 337 337 342 341 343 347 348 347 346 346 344 341 339 341 342 341 339 339 339 337 336 336 336 336 334 330 327 328 330 330 329 330 330 330 329 328 330 327 326 326 325 319 322
334 334 334 335 333 334 336 340 343 344 343 344 346 346 345 344 342 337 339 342 341 338 337 339 338 336 336 333 334 333 331 328 329 330 330 329 327 329 327 325 327 327 329 330 326 328 325 324 323
333 334 335 334 332 334 336 338 340 340 339 343 346 345 342 337 337 340 339 341 339 337 336 337 336 334 334 334 334 333 332 329 329 329 328 324 323 322 322 326 327 325 326 326 324 324 321 321 319
332 333 334 333 333 335 336 337 338 339 336 336 340 338 337 335 340 340 339 339 338 336 335 334 334 333 332 332 332 332 330 329 330 328 323 323 322 321 321 321 322 321 321 322 321 320 320 319 319
333 332 333 332 333 336 338 338 340 339 339 337 337 337 336 336 343 341 339 339 338 336 335 334 334 334 332 331 330 330 330 330 328 325 325 323 321 321 319 319 319 318 317 316 316 314 318 317 317
334 331 331 331 332 334 336 335 337 337 338 336 340 342 337 337 342 339 337 337 338 336 334 334 332 332 333 332 332 333 332 327 325 325 324 323 318 317 316 314 313 314 313 313 312 313 315 316 316
330 330 331 331 333 334 335 338 338 337 339 338 345 343 338 337 342 339 336 336 335 336 335 334 332 332 331 329 328 330 326 325 325 324 322 318 313 308 313 311 310 311 309 310 310 310 310 311 313
330 330 330 329 331 335 334 337 333 338 339 337 344 342 340 341 341 337 336 335 336 335 333 332 331 327 327 327 323 324 325 324 325 323 320 315 312 312 309 309 309 311 310 309 308 309 309 310 310
330 332 334 334 334 335 334 335 335 335 334 336 344 342 341 341 340 338 336 335 335 335 333 330 331 332 325 326 323 324 323 321 321 318 314 311 311 311 312 310 311 309 309 309 309 308 308 308 308
331 333 336 339 340 337 336 340 339 336 337 336 341 341 341 340 339 339 337 337 335 333 331 331 331 328 325 325 324 319 321 320 316 311 311 312 312 311 310 309 308 309 309 309 309 308 307 307 308
335 336 330 339 339 341 338 337 335 337 338 339 342 342 340 340 339 337 336 336 334 333 332 332 329 328 326 325 323 320 319 313 310 307 309 312 310 311 310 307 309 309 310 309 309 308 309 309 309
335 334 340 338 341 341 339 341 341 339 340 340 342 341 340 340 338 337 336 335 333 333 332 330 327 324 322 321 320 320 314 311 308 309 309 309 310 310 306 308 309 309 310 310 310 310 309 309 309
337 337 336 337 338 342 343 341 336 337 336 340 340 341 340 339 337 335 334 332 332 331 328 326 322 321 321 321 319 315 313 309 309 310 310 310 310 309 307 309 309 309 310 311 311 311 309 309 310
334 337 338 340 341 341 339 341 331 336 335 337 338 339 337 336 334 332 330 328 330 328 325 323 322 321 321 319 316 313 311 309 309 310 310 310 310 308 308 308 308 310 311 311 312 312 311 311 311
Wind_Speed
5 4 2 1 1 1 3 1 2 1 1 1 3 2 2 2 0 2 0 11 18 22 19 16 16 15 15 13 12 11 11 10 9 8 8 6 5 5 5 4 4 4 5 5 6 5 6 5 6
3 2 2 2 2 2 2 1 3 1 3 6 4 3 1 0 3 6 9 11 22 22 20 19 19 17 16 14 14 12 11 10 9 8 8 6 5 4 4 3 3 4 4 5 5 6 5 5 5
3 1 1 3 2 2 2 2 1 2 8 1 1 2 1 1 3 9 7 19 23 21 21 19 20 18 16 14 13 12 10 9 8 7 6 5 3 2 2 3 4 4 5 5 6 5 5 6 5
2 1 2 3 5 1 0 2 3 4 4 3 1 2 1 0 1 8 18 22 22 20 19 19 18 17 16 14 13 11 9 8 7 7 5 4 3 2 4 5 6 7 6 7 7 7 7 7 7
2 1 2 3 5 1 4 3 4 4 3 2 3 1 2 2 6 14 20 23 23 21 18 17 18 16 15 12 10 9 7 7 7 6 5 4 3 4 6 5 6 6 6 7 7 8 7 7 7
0 1 2 3 3 1 3 7 6 6 6 3 3 2 0 4 10 14 17 18 18 19 19 17 18 19 15 13 13 10 8 8 7 6 5 4 4 5 5 5 5 6 7 8 8 8 9 8 7
2 3 3 2 3 2 1 8 6 7 6 6 2 4 2 9 12 16 18 19 18 17 18 16 16 16 15 13 12 10 9 8 7 6 5 5 4 4 2 2 3 5 6 7 7 7 7 7 6
2 1 1 1 1 1 2 5 2 9 6 2 6 5 2 10 17 17 16 16 16 17 17 16 15 14 14 12 12 10 9 7 6 4 4 3 3 2 1 1 2 3 4 5 6 6 6 5 5
3 1 1 1 2 3 1 3 3 1 6 4 7 3 2 19 22 18 17 16 16 17 18 16 15 14 13 11 10 8 8 7 6 5 5 5 5 5 5 5 4 4 6 5 6 8 7 7 7
0 1 1 2 1 1 1 2 4 5 5 5 4 2 9 22 22 22 21 20 20 20 18 17 15 13 12 10 9 8 8 7 8 7 7 6 7 6 6 7 7 8 8 9 8 11 12 10 9
2 3 1 3 7 6 4 4 5 7 9 8 13 11 14 20 20 20 20 21 22 19 17 18 18 16 13 11 8 9 10 9 8 9 8 8 8 8 8 8 9 10 11 12 12 12 11 10 10
4 9 7 5 1 2 4 1 5 9 5 5 7 11 18 18 19 20 19 19 17 16 15 16 18 16 16 11 8 9 11 13 12 9 11 11 10 11 10 10 10 11 11 13 12 12 12 14 14
6 7 4 7 11 7 5 5 4 3 6 4 2 9 12 12 14 15 15 13 12 14 15 17 19 16 16 19 12 14 15 16 14 12 12 13 13 13 13 13 13 13 12 12 12 14 14 12 8
2 8 9 6 6 0 3 2 2 2 1 3 3 4 6 9 12 11 13 11 12 13 16 17 22 25 25 24 20 16 19 18 16 16 17 16 17 18 16 17 18 16 17 19 17 15 15 11 10
4 4 2 2 2 2 2 3 2 6 3 4 4 4 5 7 10 10 10 9 10 13 16 19 24 24 29 27 24 20 21 17 18 18 18 18 20 21 24 22 25 28 24 22 22 18 14 14 12
1 2 3 3 4 2 2 4 1 2 0 2 1 2 3 6 9 10 9 6 8 12 14 18 23 23 22 21 25 22 16 15 18 18 18 14 12 22 21 18 18 21 21 23 21 18 18 16 16
2 2 3 4 2 1 2 3 2 0 3 4 3 3 5 6 8 8 8 9 8 9 7 10 10 10 13 15 17 16 12 12 14 11 6 10 16 17 13 15 15 18 19 23 22 22 20 20 20
4 6 4 5 1 2 2 2 1 4 5 3 4 4 5 5 6 6 5 4 5 3 3 3 6 7 8 7 7 6 8 6 3 2 8 11 11 11 14 19 20 17 17 17 20 18 22 25 22
3 6 8 8 3 3 5 4 7 5 6 7 7 5 5 3 1 2 3 2 1 0 2 4 5 4 6 6 5 4 3 5 1 6 6 8 8 8 10 11 12 12 11 12 12 11 13 14 19
7 8 11 6 3 5 5 9 7 7 5 5 6 4 3 4 2 2 2 2 1 4 7 7 7 6 4 4 4 3 5 3 2 4 2 3 6 8 8 10 9 11 10 10 9 8 10 11 14
11 10 11 10 1 3 3 6 6 5 6 6 6 4 5 5 5 4 4 4 4 6 7 10 8 6 4 3 3 4 2 2 2 3 1 3 5 7 9 9 10 11 13 13 14 17 12 14 15
13 17 13 10 8 10 2 9 5 7 9 7 7 4 8 7 6 6 5 3 3 5 7 7 4 4 5 4 2 2 3 2 2 1 2 3 6 8 8 10 11 11 12 13 15 15 16 15 17
15 8 9 7 7 4 6 5 3 2 10 12 8 5 7 9 8 7 6 3 2 2 3 4 4 4 6 5 4 5 5 3 1 3 3 5 8 11 10 12 13 13 16 18 18 20 18 18 19
8 8 6 1 3 6 7 5 8 5 11 9 6 5 8 10 9 7 7 3 3 3 4 4 6 6 4 3 5 6 3 2 2 2 4 7 8 10 14 16 18 16 15 18 20 19 20 19 18
2 2 6 8 6 10 2 5 10 7 6 8 9 8 8 8 8 6 5 5 5 4 4 5 4 3 3 6 5 3 1 3 3 4 6 7 10 11 12 17 16 17 18 18 17 18 19 19 19
2 2 5 14 12 14 2 5 3 2 2 2 7 8 8 8 6 5 5 6 7 7 6 4 4 5 6 4 1 1 2 3 3 5 5 7 9 10 16 18 17 16 17 17 15 16 16 16 17
4 3 2 3 1 4 3 4 9 3 4 3 8 9 9 7 6 6 6 7 7 6 6 6 5 5 5 3 2 1 2 2 3 4 8 9 12 12 14 16 14 17 17 15 14 15 16 16 14
2 5 4 3 6 10 3 4 8 3 8 9 10 10 10 8 8 7 8 8 7 6 7 7 7 7 6 5 4 4 3 4 3 7 11 14 15 15 17 13 14 16 17 15 14 14 16 17 11
3 3 1 2 2 5 8 4 2 10 8 11 11 12 12 12 11 9 9 9 8 9 9 9 8 7 7 7 7 6 5 6 7 10 14 16 15 14 14 12 14 16 16 15 15 13 11 14 14
2 4 5 5 5 3 4 6 1 8 6 9 12 12 11 11 11 9 10 10 10 11 11 11 10 8 8 8 7 7 8 9 11 13 15 15 13 14 12 13 14 14 14 13 13 13 11 10 13
Wind_Direction
124 126 120 191 109 46 85 98 10 55 106 337 139 178 204 59 275 357 121 167 157 155 158 159 159 153 152 148 147 145 142 142 143 142 139 139 137 126 112 101 84 66 54 49 43 45 34 18 15
106 55 32 61 64 61 84 114 178 202 100 115 92 94 150 275 107 125 136 165 160 157 160 164 167 163 157 158 155 156 156 152 149 147 147 142 141 128 109 78 56 43 38 36 27 26 28 21 13
58 29 330 66 100 105 109 170 187 105 146 60 132 26 164 118 136 161 168 159 161 163 164 166 166 163 160 160 161 158 162 161 158 156 149 147 147 115 75 51 33 27 22 21 20 23 27 29 21
340 88 113 66 72 123 71 83 171 138 187 242 157 191 123 51 208 179 160 161 163 165 165 170 170 164 165 170 171 172 173 173 170 166 161 151 148 113 86 69 44 30 21 16 12 17 17 18 17
59 191 73 68 64 143 220 207 173 185 187 177 187 140 224 173 153 158 163 168 170 169 170 171 167 166 175 181 181 183 184 183 176 169 160 151 141 125 118 92 69 53 52 38 29 16 12 7 9
121 273 66 58 20 231 219 193 172 208 217 146 211 188 334 138 156 161 166 172 175 172 173 174 173 182 187 189 189 187 186 184 179 173 165 160 152 145 132 97 72 57 56 52 48 41 32 31 33
43 15 36 356 2 333 282 168 198 211 209 214 153 206 128 189 178 167 173 176 180 182 178 175 181 188 195 197 195 190 188 184 183 181 173 169 153 143 136 111 58 40 34 31 26 27 32 29 22
66 333 47 352 348 78 357 179 231 185 206 112 165 225 192 188 177 172 175 179 183 184 188 189 190 190 189 195 202 197 193 189 191 196 194 175 171 168 188 234 336 350 356 352 351 351 357 5 8
171 186 352 153 208 19 131 178 141 168 159 182 191 274 29 156 160 166 175 182 187 194 197 198 198 197 199 194 198 202 204 199 194 202 208 204 211 216 237 245 265 287 292 298 308 306 309 313 310
197 311 247 253 247 15 328 314 172 201 204 207 217 104 121 152 166 172 179 189 195 199 204 204 205 206 208 206 198 198 203 206 207 212 213 217 228 236 252 262 262 272 287 286 288 284 292 297 292
153 241 208 303 264 266 279 245 219 243 232 223 220 192 158 169 182 186 189 196 201 204 208 208 211 211 216 216 208 210 215 218 224 229 232 240 245 251 259 269 273 284 295 296 296 291 290 295 295
255 244 241 290 140 252 256 218 228 232 287 322 260 187 170 182 189 191 196 200 204 208 214 215 220 217 216 226 217 223 232 235 237 242 242 246 257 266 264 268 276 290 298 293 293 291 288 295 296
233 288 255 282 277 277 275 268 306 40 15 7 94 163 183 186 194 196 203 206 207 212 217 220 219 220 220 227 225 232 236 240 245 256 256 257 263 268 271 269 274 279 289 293 285 293 288 288 290
278 279 283 286 262 84 308 323 331 38 38 65 90 143 170 190 192 190 205 207 214 227 231 227 235 228 224 220 224 231 248 242 242 258 266 269 271 274 277 277 272 270 279 281 278 286 283 269 272
300 310 346 24 342 13 333 253 342 355 26 51 70 114 163 189 189 204 215 216 226 241 242 235 242 239 233 223 221 225 234 245 254 259 273 284 284 283 281 275 273 275 274 271 270 275 263 269 266
11 67 5 358 342 24 224 19 34 340 71 83 97 142 182 200 206 207 210 230 252 262 255 236 240 245 238 231 226 234 246 257 266 275 287 283 296 300 287 284 284 289 282 271 269 264 260 276 277
7 342 294 310 26 299 299 308 356 20 186 188 196 195 198 220 225 232 245 258 270 273 273 233 223 221 227 238 245 240 251 274 271 280 280 293 288 289 286 284 287 291 282 278 273 269 259 252 256
296 296 270 277 211 111 291 236 263 227 223 193 201 217 232 237 262 287 299 259 273 287 305 190 189 216 230 222 222 221 253 261 237 237 299 303 303 294 293 294 292 298 288 279 284 274 269 263 257
267 268 272 278 274 257 260 209 205 216 251 239 226 230 226 218 109 3 2 323 259 334 107 130 143 161 173 162 164 185 189 167 168 314 303 307 318 332 321 300 314 320 306 308 314 303 308 300 284
265 289 271 285 209 235 231 257 194 207 231 223 206 210 219 175 153 95 81 72 78 102 111 122 115 129 152 163 171 168 188 204 300 318 9 350 344 350 357 355 353 352 346 346 335 322 307 290 292
267 253 278 290 208 247 256 262 208 205 221 207 232 226 199 186 148 103 36 60 90 115 120 123 109 105 118 162 185 190 178 327 72 98 348 344 1 7 12 7 0 353 349 340 333 329 305 291 296
273 277 268 275 293 290 286 294 261 217 205 209 204 211 181 158 123 104 72 36 72 110 123 135 128 78 83 102 183 183 110 75 133 88 348 353 12 18 16 7 0 353 342 335 328 321 309 295 286
267 300 280 286 273 270 233 253 275 279 238 211 177 149 141 142 133 126 111 94 67 151 134 134 148 111 101 94 104 118 111 98 15 345 5 19 15 15 9 358 351 344 337 329 326 318 309 297 288
267 269 270 138 236 258 285 255 287 234 238 208 150 137 136 132 121 122 121 138 148 136 129 130 122 110 105 115 119 127 110 29 19 31 14 6 9 358 349 345 343 337 330 329 326 318 310 304 298
173 239 284 279 258 283 36 242 277 307 284 247 166 155 146 138 138 143 156 179 166 157 147 132 109 94 107 141 148 136 55 30 48 21 357 2 350 338 334 343 336 337 334 329 319 315 305 304 302
178 231 288 293 292 296 137 250 292 2 23 8 153 150 152 147 151 143 168 177 164 160 163 156 145 129 140 161 185 337 70 82 30 346 356 340 326 326 332 335 338 333 331 324 321 317 309 304 301
149 246 50 280 222 268 281 274 265 253 204 171 167 165 163 159 164 165 189 189 179 179 185 187 171 172 196 217 259 248 156 111 332 333 329 316 318 321 326 333 332 335 332 327 321 322 321 313 308
284 128 248 253 277 285 245 273 280 274 228 202 180 184 174 166 175 189 196 197 193 196 191 193 201 214 220 220 209 201 230 299 301 308 312 312 314 317 326 328 335 334 333 331 324 332 328 318 311
174 215 138 286 256 279 294 264 224 296 298 214 193 184 180 178 184 188 190 201 201 199 201 203 212 219 227 219 211 225 264 280 274 294 305 311 308 315 318 324 330 333 331 336 336 331 332 320 315
293 276 226 246 226 227 290 268 272 289 292 206 185 182 182 183 188 189 190 200 208 210 208 219 221 229 228 214 228 249 270 265 270 288 299 308 302 312 311 317 325 332 327 324 331 331 327 319 313